Theta_e
320 324 326 326 326 324 325 325 323 323 323 324 325 325 326 327 328 331 332 324 333 342 346 346 345 345 343 342 342 341 339 337 335 333 332 331 330 328 329 329 327 326 325
314 319 322 324 326 327 327 325 323 322 322 323 321 322 323 324 326 329 330 329 328 336 342 345 345 345 343 341 341 340 337 334 334 331 331 330 329 329 328 327 325 325 324
306 308 312 320 323 327 326 324 322 320 319 320 321 321 320 321 322 326 328 327 328 326 335 342 343 343 341 340 340 338 336 333 332 331 330 329 329 328 326 325 324 323 323
302 301 309 309 318 323 325 323 321 318 318 318 316 318 318 319 320 321 323 324 329 331 330 336 338 339 340 341 340 336 333 331 330 331 331 329 327 325 324 323 323 323 323
301 304 304 305 306 310 323 324 321 319 316 315 316 317 318 318 318 319 320 321 323 328 332 329 329 330 335 338 338 334 331 329 330 330 329 327 325 323 322 323 323 323 323
300 298 301 302 303 304 305 322 321 320 318 316 316 316 317 317 318 318 319 318 320 322 328 329 327 326 327 334 335 332 330 331 330 329 327 324 323 322 323 323 324 324 323
298 298 298 298 301 302 304 303 320 318 318 318 315 315 316 317 317 317 319 318 317 318 325 326 327 327 328 329 331 332 331 331 328 326 324 323 322 323 324 324 324 323 323
296 298 297 297 299 301 301 303 303 318 318 318 314 312 306 308 314 315 316 316 317 316 320 322 324 325 326 326 325 329 330 328 327 324 322 322 323 324 324 324 324 324 324
294 297 297 297 297 298 300 301 301 303 314 316 317 312 304 304 307 303 313 314 314 315 316 319 320 320 321 321 324 323 322 323 324 323 322 323 324 324 324 325 325 325 325
292 296 297 296 295 295 294 301 302 301 308 313 316 315 309 308 305 299 301 312 313 314 316 318 318 318 317 319 316 313 314 318 320 322 324 325 324 324 325 325 326 326 327
289 291 294 294 294 294 295 298 301 300 299 315 314 313 306 308 309 307 301 299 310 313 316 317 317 317 317 316 316 312 314 317 318 319 320 322 324 325 326 326 327 327 328
284 287 292 295 295 295 295 296 298 301 300 311 316 314 309 306 305 307 306 303 306 298 311 317 316 316 315 315 311 307 312 316 318 317 318 319 321 324 327 327 328 328 327
280 282 286 289 294 295 295 295 296 299 300 297 315 314 311 309 309 309 307 304 297 293 298 301 316 315 314 314 312 307 308 314 317 316 316 317 320 321 324 326 327 326 325
278 282 283 286 293 294 294 294 295 298 300 299 313 313 311 310 310 309 307 303 293 289 294 297 298 312 312 313 310 304 312 311 315 316 317 317 319 320 321 323 324 323 322
278 279 283 286 287 294 293 293 293 295 300 299 313 313 310 310 310 310 308 308 304 293 291 293 296 299 306 305 306 314 314 306 314 315 316 316 317 318 319 321 322 322 322
276 278 280 281 285 291 293 292 291 293 297 299 299 312 310 310 309 309 307 307 307 305 299 294 294 297 300 298 300 308 312 302 307 311 313 313 314 315 316 318 319 319 319
275 276 277 280 282 283 291 291 291 291 293 297 297 310 309 309 308 307 306 307 306 307 302 290 294 299 296 297 296 299 301 307 306 305 308 310 311 312 313 314 315 316 316
273 275 275 277 279 282 287 290 290 290 290 292 297 307 307 307 307 307 306 307 306 307 300 293 293 294 296 295 295 297 296 297 300 302 306 308 309 309 310 311 311 311 311
271 272 273 276 278 281 282 290 290 290 289 290 296 296 307 306 306 306 306 306 307 306 300 296 289 294 293 294 292 290 292 292 294 299 305 306 307 308 308 308 308 306 305
271 271 273 275 277 278 280 282 289 289 289 290 294 295 306 306 306 305 305 305 305 304 298 297 295 294 294 292 295 293 290 289 291 292 298 303 305 304 306 306 304 301 301
271 271 273 276 276 277 278 280 286 288 288 288 289 293 306 305 302 305 305 304 304 301 298 297 294 293 292 291 293 294 294 293 287 290 289 291 296 301 302 302 298 298 302
269 270 270 271 274 277 278 282 283 287 288 287 287 292 303 299 298 301 303 303 303 295 294 295 294 292 292 293 294 294 292 292 289 288 296 289 291 295 296 299 300 300 301
268 269 269 270 272 275 279 281 284 284 287 288 287 288 292 302 299 301 300 300 300 300 298 297 292 294 291 294 293 292 291 293 293 289 295 293 285 294 287 292 299 300 301
267 268 268 269 271 275 279 280 283 283 285 287 287 287 289 300 301 300 298 296 296 298 298 299 295 295 296 295 294 294 291 288 286 289 286 289 283 284 282 282 298 299 299
267 267 268 268 269 272 278 280 281 285 286 286 287 288 290 299 299 299 297 294 294 295 297 297 297 297 297 297 294 291 287 287 281 287 282 281 281 281 280 282 286 298 298
270 271 270 270 270 271 278 280 283 285 284 285 287 288 290 299 297 298 296 294 292 293 291 289 291 294 294 294 293 292 289 289 281 281 288 281 283 280 278 278 285 288 293
Wind_Speed
11 11 9 8 8 6 6 6 6 7 7 8 8 10 9 9 8 5 5 13 16 24 28 31 33 33 32 29 28 27 28 26 25 24 22 21 20 21 21 21 20 19 19
12 13 12 10 9 7 7 8 9 9 9 10 9 9 6 5 7 9 7 8 16 21 28 31 32 32 33 31 30 29 29 28 24 26 25 22 22 21 21 21 19 19 18
13 15 13 14 10 8 11 9 7 7 9 8 13 11 8 5 4 9 11 6 8 15 27 34 33 33 34 34 32 31 30 28 26 26 24 23 23 22 21 21 20 19 19
13 14 10 11 15 11 10 10 10 10 10 11 10 8 8 8 6 1 5 4 5 8 16 38 34 33 34 33 33 33 32 30 28 27 25 25 23 23 21 21 20 20 20
12 9 8 10 14 16 13 13 13 15 12 11 11 10 8 8 9 5 2 5 5 6 8 14 23 26 31 33 33 33 32 30 29 27 26 25 25 24 23 23 22 21 20
12 7 9 10 11 12 15 15 17 16 15 14 12 10 10 9 9 11 8 4 3 6 9 10 11 12 22 30 31 32 31 32 30 27 26 26 25 25 24 23 23 21 20
11 9 5 9 10 12 17 18 13 20 16 14 11 8 9 11 10 8 9 6 5 3 9 11 9 10 12 27 30 30 31 31 30 28 27 26 26 26 25 24 22 20 19
16 10 6 7 9 11 16 17 19 15 16 17 12 10 7 4 8 10 9 10 11 4 8 12 13 14 13 13 19 30 30 30 30 28 27 27 27 26 25 24 22 21 19
16 13 8 6 5 8 13 13 14 23 10 13 18 9 7 8 10 1 13 9 10 6 2 11 14 12 11 10 17 21 25 26 27 28 28 27 27 26 25 23 22 20 18
19 15 12 5 5 4 15 13 8 17 23 16 15 14 6 10 13 6 1 9 10 11 8 8 9 11 10 9 13 15 19 21 24 25 25 25 27 26 24 23 21 20 15
20 18 16 8 5 6 8 17 15 14 15 15 16 17 6 10 12 15 11 6 8 11 10 7 11 11 13 10 10 15 19 20 21 23 23 23 23 24 24 22 22 17 20
12 17 17 12 7 6 7 13 14 17 22 21 17 18 14 15 13 15 14 12 14 3 7 10 11 11 10 11 11 20 22 22 21 20 19 19 19 21 21 21 22 23 22
13 15 17 19 9 7 6 12 17 14 13 18 23 19 13 13 14 14 13 12 6 2 3 1 13 12 10 11 12 19 21 22 21 21 18 16 15 15 16 22 20 18 17
14 18 17 18 21 8 7 8 12 12 10 18 22 17 15 14 15 16 13 16 7 2 2 3 2 11 11 11 13 22 17 22 22 23 21 17 16 15 16 18 19 18 18
15 19 18 15 21 10 8 6 8 15 10 18 15 18 17 15 14 14 14 18 18 8 5 4 4 4 10 9 12 17 16 21 23 23 21 19 18 16 14 15 18 18 19
20 19 17 18 16 19 7 7 8 12 14 11 12 23 21 16 16 14 15 15 16 13 12 4 3 5 9 6 11 13 15 16 18 18 20 19 17 16 16 17 19 21 22
18 19 19 19 16 15 13 8 9 13 13 14 19 18 25 21 15 14 14 14 13 12 14 2 3 7 6 11 7 6 9 12 10 15 16 17 17 16 17 18 20 21 22
16 19 17 19 18 16 19 9 8 9 14 15 15 13 20 16 21 18 16 19 16 14 13 15 6 5 6 10 10 11 6 5 9 15 16 17 18 18 20 21 20 20 21
18 20 18 19 16 17 15 11 8 8 11 14 17 14 21 22 19 17 18 17 15 12 14 11 7 4 4 9 5 5 4 5 2 10 16 19 20 21 22 22 21 20 19
18 18 18 18 14 16 15 15 10 9 10 13 16 19 23 25 23 21 19 20 17 15 14 13 10 11 8 7 9 11 5 2 4 3 5 10 18 21 23 23 21 19 19
18 17 19 16 15 14 12 15 14 11 9 12 15 15 22 25 29 27 17 18 19 14 14 14 11 10 9 11 14 7 7 8 3 2 3 3 6 9 10 16 16 20 21
18 18 18 17 18 12 20 27 23 14 11 9 12 15 16 25 23 30 30 31 27 20 15 14 12 15 15 15 11 12 10 9 6 2 9 4 6 9 8 9 18 21 22
18 19 18 18 18 17 25 27 27 17 13 11 11 13 14 18 23 21 25 27 31 34 31 19 18 18 16 19 15 15 13 13 9 6 9 10 1 9 3 7 20 22 24
18 18 17 17 18 16 26 27 29 18 17 14 13 13 15 20 23 24 21 21 21 22 23 16 23 18 17 19 20 18 17 8 6 5 5 8 3 2 3 2 17 21 22
18 17 16 17 17 16 27 27 27 16 14 13 11 14 14 17 27 32 22 20 19 16 18 22 25 28 25 30 21 14 11 13 4 5 3 5 3 3 1 2 3 20 21
19 15 17 15 18 18 26 28 22 12 9 10 11 13 18 22 32 33 23 21 21 17 17 10 7 19 27 28 34 23 19 17 7 3 8 6 6 6 2 2 6 6 10
Wind_Direction
309 299 286 265 248 233 198 189 178 164 159 161 167 182 186 189 190 200 201 205 200 185 184 174 167 160 157 154 152 150 148 144 142 138 131 145 142 138 136 137 134 127 125
320 313 294 274 260 229 216 191 185 173 171 171 156 159 165 182 201 204 200 202 195 198 178 180 172 166 158 159 155 152 152 149 145 136 139 142 142 143 137 133 135 130 128
315 315 314 295 270 236 221 204 188 188 163 167 173 160 150 160 202 208 205 182 201 210 186 182 175 169 165 164 160 156 156 152 147 143 143 141 143 141 140 139 136 136 134
310 303 305 315 306 263 220 203 186 190 181 173 171 170 167 159 219 217 173 151 190 199 208 188 177 171 168 167 159 156 155 152 153 145 146 146 145 145 144 142 142 140 135
298 297 312 313 313 314 241 221 199 194 182 179 178 173 182 177 180 141 230 125 182 187 196 183 181 169 168 163 161 160 156 160 156 152 148 146 151 149 151 149 143 140 136
284 301 300 306 312 301 306 235 219 199 194 180 177 181 185 188 179 179 171 121 132 212 188 173 171 160 179 164 160 158 158 160 153 150 146 155 155 153 153 151 146 143 141
278 269 271 294 304 296 284 304 230 204 197 184 178 186 192 188 186 177 169 160 161 227 176 153 155 155 165 165 157 156 162 159 154 152 157 159 157 157 156 154 149 148 146
279 256 254 277 299 298 297 282 307 241 186 176 179 167 172 177 187 175 176 188 186 151 207 150 161 160 152 164 159 155 163 161 156 159 160 161 160 161 159 156 156 154 153
293 269 234 245 280 310 283 274 279 300 222 175 183 174 163 188 148 111 185 179 174 173 258 142 146 145 147 150 157 155 161 159 159 161 164 165 162 165 159 161 160 159 161
301 285 263 219 273 267 297 250 272 266 289 183 182 199 174 155 168 145 74 185 171 174 173 161 137 134 148 151 152 150 149 154 161 163 165 168 165 169 163 169 167 167 173
310 298 278 231 220 279 294 286 262 278 287 223 186 183 159 168 178 165 161 161 173 175 175 177 154 163 159 148 156 149 151 156 164 164 168 169 173 172 170 178 179 182 178
300 301 306 249 215 236 277 296 304 271 254 263 191 179 175 171 171 173 161 163 161 140 170 172 168 164 167 154 165 153 155 161 168 163 168 173 177 178 181 188 178 159 152
299 296 301 306 240 233 270 279 289 282 282 294 199 183 175 174 171 172 157 154 146 103 117 336 176 169 169 161 166 154 156 165 169 164 170 171 180 188 187 173 156 158 158
289 294 295 293 292 221 241 301 281 291 269 282 212 181 173 175 174 175 173 155 123 110 116 149 334 168 169 168 174 158 165 168 171 172 175 174 178 173 172 168 161 162 154
292 296 289 289 313 246 238 265 280 278 276 279 227 193 178 174 175 177 167 172 164 151 166 187 143 199 158 150 168 162 167 172 174 174 175 172 170 169 167 163 157 157 155
289 288 292 295 290 296 224 252 284 293 282 271 287 207 182 175 171 171 171 172 173 169 158 132 166 178 144 129 167 150 169 165 160 167 168 166 168 169 163 165 161 157 154
307 304 302 294 300 298 261 225 252 278 284 277 295 210 172 176 165 165 170 175 165 168 161 102 102 181 129 144 157 142 156 169 176 171 169 166 169 167 163 160 160 159 156
292 289 293 291 290 286 290 246 257 277 284 305 275 195 181 174 168 163 167 171 172 161 149 147 126 159 151 158 165 156 154 155 166 177 170 168 169 165 162 156 160 158 159
294 288 286 281 283 287 293 257 260 276 289 287 279 310 185 170 176 165 166 164 165 154 142 148 129 155 112 152 139 85 134 117 128 164 164 169 163 164 160 159 161 159 158
289 286 284 275 271 282 281 293 261 262 285 279 284 296 187 176 175 167 169 168 165 156 147 149 144 153 154 155 162 158 153 111 126 86 134 169 164 164 163 164 162 163 161
289 292 286 285 276 274 274 266 277 259 266 287 312 304 185 179 178 173 164 162 158 158 156 154 151 152 155 157 176 162 157 157 64 148 114 131 151 166 167 167 163 163 171
287 282 284 280 279 267 270 268 264 276 263 272 293 276 246 176 172 176 167 164 159 153 158 158 163 167 167 169 162 163 148 156 169 253 153 168 165 171 166 181 172 172 171
291 283 278 275 272 267 266 267 261 258 263 261 270 288 292 186 172 174 164 161 165 164 162 164 163 174 163 171 159 168 171 172 166 174 161 171 173 176 173 163 177 173 175
286 279 276 273 271 272 265 261 253 250 253 246 260 275 278 192 177 175 162 162 169 170 166 167 164 170 170 168 169 176 166 131 57 138 133 165 162 187 126 119 186 179 182
280 273 269 267 264 265 263 263 259 254 232 239 246 256 252 210 173 173 164 162 166 171 172 161 168 162 167 167 161 136 154 157 114 178 174 108 180 107 118 140 196 191 190
288 273 269 260 256 261 254 259 255 242 227 243 249 255 242 207 170 175 168 168 167 171 157 128 151 158 161 171 167 168 161 173 150 117 188 121 147 147 139 201 190 198 196